User: anonymous   Login
Location: Drummondville
(45.8830°N, 72.4830°W)
Time: 06:19:31
(UTC-04:00)
Language:

Vanguard 3 - Orbit

View from above orbital plane
View from above orbital plane
View from above satellite
View from above satellite

Ground track
Ground track

The orbit data is extracted from the following two-line orbital elements,

1    20U 59007A   18109.39086014 +.00000179 +00000-0 +78819-4 0  9997
2    20 033.3413 116.3724 1667695 036.1161 334.1306 11.55568434139187
Epoch (UTC): 19 April 2018 09:22:50
Eccentricity: 0.1667695
inclination: 33.3413°
perigee height: 508 km
apogee height: 3264 km
right ascension of ascending node: 116.3724°
argument of perigee: 36.1161°
revolutions per day: 11.55568434
mean anomaly at epoch: 334.1306°
orbit number at epoch: 13918

The dashed part of the orbit path shows where the satellite is in the earth's shadow,  

DLR